User: anonymous   Login
Location: Bazugues
(43.4465°N, 0.3432°E)
Time: 19:36:04
(UTC+00:00)
Language:

UNISAT 6 - Orbit

View from above orbital plane
View from above orbital plane
View from above satellite
View from above satellite

Ground track
Ground track

The orbit is defined by the following mean orbital elements,

1 40012U          26138.41366947 +.00000000 +00000-0 +20500-3 0 00000
2 40012  97.7845 291.6603 0045647 164.9975 195.2608 14.88053881    00
Epoch (UTC): 18 May 2026 09:55:41
Eccentricity: 0.0045647
inclination: 97.7845°
perigee height: 572 km
apogee height: 636 km
right ascension of ascending node: 291.6603°
argument of perigee: 164.9975°
revolutions per day: 14.88053881
mean anomaly at epoch: 195.2608°

The dashed part of the orbit path shows where the satellite is in the earth's shadow,  

DLR